STARLINK-31582 (59545 NORAD) Tracking and Keplerian Element Data

This shows tracking and keplerian element data for the satellite.

Feedback or suggestion? Click here.




ElementValue
Catalog59545
NameSTARLINK-31582
Epoch Orbit898
Epoch Day159.9519317
Epoch Year2024
RAAN27.6693
Inclination43.0029
Eccentricity0.0001693
Argument of Perigee274.1441
Mean Anonmoly85.9222
Mean Motion15.40704062
Decay Rate5.833E-05
L11 59545U 24074M 24159.95193170 .00005833 00000+0 14677-3 0 9997
L22 59545 43.0029 27.6693 0001693 274.1441 85.9222 15.40704062 8985



Live tracking and technical data element details for STARLINK-31582 (NORAD 59545). STARLINK-31582 can be tracked NOW for your location showing map with azimuth and elevation plus other details from your city location.







IsCatalogInMostPopularTable: catalog: 59545, numindb: 13
Update: records affected: 1



GetName: 59545 STARLINK-31582

Hit Count: updated at: Fri, 14 Jun 2024 17:45:44 GMT